Homer, AK

11:43 PM AKST on December 12, 2017 (GMT -0900)
Homer

Weather History for PAHO - May, 2014

Change the Weather History Date:

Sunday, May 4, 2014

  Actual Average Record
Temperature  
Mean Temperature 49 °F -  
Max Temperature 59 °F 46 °F 59 °F (2014)
Min Temperature 39 °F 34 °F 6 °F (1949)
Degree Days  
Heating Degree Days 16    
Moisture  
Dew Point 34 °F    
Average Humidity 55    
Maximum Humidity 76    
Minimum Humidity 38    
Precipitation  
Precipitation 0.00 in - - ()
Sea Level Pressure  
Sea Level Pressure 29.95 in    
Wind  
Wind Speed 6 mph (West)    
Max Wind Speed 17 mph    
Max Gust Speed 23 mph    
Visibility 10 miles    
Events      
Averages and records for this station are not official NWS values.
T = Trace of Precipitation, MM = Missing Value Source: NWS Daily Summary

Daily Weather History Graph

Daily Weather History Graph

Search for Another Location

Airport or City:

Trip Planner

Search our weather history database for the weather conditions in past years. The results will help you decide how hot, cold, wet, or windy it might be!

Date:

Astronomy

May. 04, 2014 Rise Set
Actual Time 5:57 AM AKDT 10:09 PM AKDT
Civil Twilight 5:03 AM AKDT 11:04 PM AKDT
Nautical Twilight 3:35 AM AKDT 12:34 AM AKDT
Astronomical Twilight Sun does not rise Sun does not rise
Moon 10:27 AM AKDT (5/4) 2:26 AM AKDT (5/4)
Length of Visible Light 18h 01m
Length of Day
16h 12m
Waxing Crescent, 29% of the Moon is Illuminated
May 4
Waxing Crescent
May 6
First Quarter
May 14
Full
May 21
Last Quarter
May 28
New

Hourly Weather History & Observations

Time (AKDT) Temp. Windchill Dew Point Humidity Pressure Visibility Wind Dir Wind Speed Gust Speed Precip Events Conditions
12:53 AM 43.0 °F 39.5 °F 33.1 °F 68% 30.01 in 10.0 mi NE 5.8 mph - N/A   Clear
1:53 AM 46.9 °F - 35.1 °F 63% 30.01 in 10.0 mi NE 4.6 mph - N/A   Clear
2:53 AM 43.0 °F 40.3 °F 33.1 °F 68% 30.00 in 10.0 mi NE 4.6 mph - N/A   Clear
3:53 AM 45.0 °F - 35.1 °F 68% 29.99 in 10.0 mi Calm Calm - N/A   Clear
4:53 AM 41.0 °F - 33.1 °F 73% 29.99 in 10.0 mi Calm Calm - N/A   Clear
5:53 AM 39.9 °F - 32.0 °F 73% 29.98 in 10.0 mi Calm Calm - N/A   Scattered Clouds
6:53 AM 41.0 °F - 34.0 °F 76% 29.98 in 10.0 mi Calm Calm - N/A   Clear
7:53 AM 48.0 °F - 37.0 °F 66% 29.98 in 10.0 mi Calm Calm - N/A   Clear
8:53 AM 51.1 °F - 37.9 °F 61% 29.97 in 10.0 mi ENE 5.8 mph - N/A   Partly Cloudy
9:53 AM 55.0 °F - 37.0 °F 51% 29.97 in 10.0 mi East 3.5 mph - N/A   Partly Cloudy
10:53 AM 57.0 °F - 36.0 °F 45% 29.96 in 10.0 mi West 5.8 mph - N/A   Clear
11:53 AM 55.9 °F - 36.0 °F 47% 29.96 in 10.0 mi West 12.7 mph - N/A   Clear
12:53 PM 59.0 °F - 34.0 °F 39% 29.95 in 10.0 mi WSW 12.7 mph - N/A   Clear
1:53 PM 57.0 °F - 36.0 °F 45% 29.94 in 10.0 mi WSW 16.1 mph 23.0 mph N/A   Clear
2:53 PM 57.9 °F - 36.0 °F 44% 29.93 in 10.0 mi WSW 16.1 mph - N/A   Clear
3:53 PM 55.9 °F - 33.1 °F 42% 29.92 in 10.0 mi WSW 17.3 mph 23.0 mph N/A   Clear
4:53 PM 59.0 °F - 33.1 °F 38% 29.92 in 10.0 mi West 12.7 mph 21.9 mph N/A   Clear
5:53 PM 55.0 °F - 34.0 °F 45% 29.91 in 10.0 mi West 13.8 mph 18.4 mph N/A   Clear
6:53 PM 55.9 °F - 34.0 °F 44% 29.90 in 10.0 mi West 10.4 mph - N/A   Clear
7:53 PM 53.1 °F - 32.0 °F 45% 29.90 in 10.0 mi West 12.7 mph - N/A   Clear
8:53 PM 53.1 °F - 32.0 °F 45% 29.89 in 10.0 mi West 10.4 mph - N/A   Clear
9:53 PM 52.0 °F - 33.1 °F 49% 29.90 in 10.0 mi West 6.9 mph - N/A   Clear
10:53 PM 48.9 °F - 35.1 °F 59% 29.89 in 10.0 mi Calm Calm - N/A   Clear
11:53 PM 43.0 °F - 33.1 °F 68% 29.89 in 10.0 mi Calm Calm - N/A   Clear